When you browse on this site, cookies collect data to enhance your experience and personalize the content and advertising you see.
Visit our Privacy Policy to learn more. By continuing to use the site, you agree to this use of cookies and data.
  • In Italy
  • List of Countries
  • For 7 days
  • Water Temperature
  • Satellite Maps
  • Weather Map
  • Weather Widgets
  • user-avatar
    Login

    Hourly Weather Jaromierz

    Today, 19 April, Friday

    Time Temperature Precipitation Wind Pressure Humidity
    00:00 +5°C° 0 mm 3 mps 768 mmHg 68%
    01:00 +6°C° 0 mm 2 mps 768 mmHg 68%
    02:00 +6°C° 0 mm 2 mps 768 mmHg 69%
    03:00 +5°C° 0 mm 2 mps 768 mmHg 71%
    04:00 +5°C° 0 mm 2 mps 768 mmHg 72%
    05:00 +6°C° 0 mm 2 mps 768 mmHg 70%
    06:00 +8°C° 0 mm 2 mps 768 mmHg 69%
    07:00 +9°C° 0 mm 2 mps 768 mmHg 67%
    08:00 +12°C° 0 mm 2 mps 768 mmHg 60%
    09:00 +13°C° 0 mm 3 mps 768 mmHg 53%
    10:00 +17°C° 0 mm 3 mps 768 mmHg 46%
    11:00 +17°C° 0 mm 3 mps 768 mmHg 43%
    12:00 +18°C° 0 mm 3 mps 768 mmHg 40%
    13:00 +19°C° 0 mm 4 mps 768 mmHg 38%
    14:00 +18°C° 0 mm 4 mps 768 mmHg 40%
    15:00 +18°C° 0 mm 4 mps 767 mmHg 43%
    16:00 +17°C° 0 mm 4 mps 767 mmHg 45%
    17:00 +13°C° 0 mm 4 mps 767 mmHg 52%
    18:00 +11°C° 0 mm 4 mps 767 mmHg 58%
    19:00 +8°C° 0 mm 3 mps 767 mmHg 65%
    20:00 +7°C° 0 mm 3 mps 767 mmHg 63%
    21:00 +5°C° 0 mm 3 mps 767 mmHg 62%
    22:00 +3°C° 0 mm 3 mps 767 mmHg 61%
    23:00 +4°C° 0 mm 2 mps 767 mmHg 62%

    Tomorrow, 20 April, Saturday

    Time Temperature Precipitation Wind Pressure Humidity
    00:00 +3°C° 0 mm 2 mps 767 mmHg 64%
    01:00 +3°C° 0 mm 2 mps 767 mmHg 65%
    02:00 +3°C° 0 mm 2 mps 767 mmHg 69%
    03:00 +2°C° 0 mm 2 mps 767 mmHg 73%
    04:00 +2°C° 0 mm 2 mps 766 mmHg 76%
    05:00 +4°C° 0 mm 2 mps 766 mmHg 75%
    06:00 +5°C° 0 mm 2 mps 766 mmHg 73%
    07:00 +7°C° 0 mm 2 mps 766 mmHg 71%
    08:00 +9°C° 0 mm 2 mps 766 mmHg 66%
    09:00 +11°C° 0 mm 3 mps 766 mmHg 60%
    10:00 +14°C° 0 mm 3 mps 766 mmHg 55%
    11:00 +15°C° 0 mm 4 mps 766 mmHg 51%
    12:00 +17°C° 0 mm 4 mps 765 mmHg 48%
    13:00 +17°C° 0 mm 4 mps 765 mmHg 44%
    14:00 +16°C° 0 mm 5 mps 765 mmHg 45%
    15:00 +15°C° 0 mm 5 mps 764 mmHg 46%
    16:00 +15°C° 0 mm 5 mps 764 mmHg 48%
    17:00 +12°C° 0 mm 4 mps 764 mmHg 53%
    18:00 +10°C° 0 mm 4 mps 764 mmHg 58%
    19:00 +8°C° 0 mm 3 mps 764 mmHg 64%
    20:00 +7°C° 0 mm 3 mps 763 mmHg 64%
    21:00 +6°C° 0 mm 2 mps 763 mmHg 64%
    22:00 +5°C° 0 mm 2 mps 763 mmHg 65%
    23:00 +5°C° 0 mm 2 mps 763 mmHg 65%

    Day after tomorrow, 21 April, Sunday

    Time Temperature Precipitation Wind Pressure Humidity
    00:00 +5°C° 0 mm 2 mps 763 mmHg 64%
    01:00 +5°C° 0 mm 2 mps 763 mmHg 64%
    02:00 +5°C° 0 mm 2 mps 762 mmHg 64%
    03:00 +4°C° 0 mm 2 mps 762 mmHg 65%
    04:00 +4°C° 0 mm 2 mps 761 mmHg 65%
    05:00 +5°C° 0 mm 2 mps 761 mmHg 63%
    06:00 +7°C° 0 mm 2 mps 761 mmHg 61%
    07:00 +8°C° 0 mm 2 mps 761 mmHg 58%
    08:00 +10°C° 0 mm 2 mps 761 mmHg 54%
    09:00 +12°C° 0 mm 3 mps 760 mmHg 50%
    10:00 +14°C° 0 mm 3 mps 760 mmHg 46%
    11:00 +14°C° 0 mm 3 mps 760 mmHg 45%
    12:00 +16°C° 0 mm 3 mps 759 mmHg 44%
    13:00 +15°C° 0 mm 4 mps 759 mmHg 43%
    14:00 +14°C° 0 mm 4 mps 759 mmHg 45%
    15:00 +14°C° 0 mm 4 mps 758 mmHg 48%
    16:00 +13°C° 0 mm 4 mps 758 mmHg 51%
    17:00 +12°C° 0 mm 3 mps 758 mmHg 56%
    18:00 +10°C° 0 mm 3 mps 758 mmHg 62%
    19:00 +9°C° 0 mm 3 mps 757 mmHg 68%
    20:00 +8°C° 0.1 mm 2 mps 757 mmHg 71%
    21:00 +7°C° 0.1 mm 2 mps 757 mmHg 74%
    22:00 +6°C° 0.1 mm 2 mps 758 mmHg 77%
    23:00 +5°C° 0 mm 2 mps 757 mmHg 78%

    22 April, Monday

    Time Temperature Precipitation Wind Pressure Humidity
    00:00 +4°C° 0 mm 2 mps 757 mmHg 78%
    01:00 +4°C° 0 mm 2 mps 757 mmHg 79%
    02:00 +4°C° 0 mm 2 mps 757 mmHg 80%
    03:00 +3°C° 0 mm 2 mps 757 mmHg 82%
    04:00 +3°C° 0 mm 2 mps 757 mmHg 83%
    05:00 +4°C° 0.1 mm 3 mps 757 mmHg 84%
    06:00 +5°C° 0.1 mm 3 mps 757 mmHg 85%
    07:00 +6°C° 0.1 mm 4 mps 757 mmHg 86%
    08:00 +7°C° 0 mm 4 mps 757 mmHg 81%
    09:00 +9°C° 0 mm 5 mps 757 mmHg 76%
    10:00 +10°C° 0 mm 6 mps 758 mmHg 71%
    11:00 +12°C° 0.1 mm 5 mps 758 mmHg 66%
    12:00 +14°C° 0.1 mm 5 mps 757 mmHg 60%
    13:00 +16°C° 0.1 mm 5 mps 757 mmHg 54%
    14:00 +15°C° 0.4 mm 5 mps 757 mmHg 56%
    15:00 +15°C° 0.4 mm 5 mps 757 mmHg 58%
    16:00 +15°C° 0.4 mm 5 mps 756 mmHg 59%
    17:00 +14°C° 0 mm 5 mps 756 mmHg 64%
    18:00 +13°C° 0 mm 5 mps 756 mmHg 69%
    19:00 +12°C° 0 mm 5 mps 756 mmHg 73%
    20:00 +10°C° 0 mm 6 mps 756 mmHg 74%
    21:00 +10°C° 0 mm 6 mps 756 mmHg 74%
    22:00 +10°C° 0 mm 7 mps 756 mmHg 74%
    23:00 +10°C° 0 mm 7 mps 756 mmHg 72%

    23 April, Tuesday

    Time Temperature Precipitation Wind Pressure Humidity
    00:00 +10°C° 0 mm 8 mps 756 mmHg 71%
    01:00 +10°C° 0 mm 8 mps 755 mmHg 69%
    02:00 +9°C° 0 mm 8 mps 755 mmHg 68%
    03:00 +8°C° 0 mm 9 mps 755 mmHg 66%
    04:00 +7°C° 0 mm 9 mps 755 mmHg 65%
    05:00 +8°C° 0 mm 9 mps 755 mmHg 64%
    06:00 +8°C° 0 mm 9 mps 755 mmHg 64%
    07:00 +9°C° 0 mm 10 mps 755 mmHg 64%
    08:00 +11°C° 0 mm 10 mps 755 mmHg 61%
    09:00 +13°C° 0 mm 10 mps 755 mmHg 58%
    10:00 +14°C° 0 mm 10 mps 755 mmHg 55%
    11:00 +16°C° 0 mm 10 mps 755 mmHg 52%
    12:00 +17°C° 0 mm 11 mps 755 mmHg 49%
    13:00 +18°C° 0 mm 11 mps 754 mmHg 46%
    14:00 +18°C° 0 mm 10 mps 754 mmHg 46%
    15:00 +17°C° 0 mm 10 mps 754 mmHg 46%
    16:00 +17°C° 0 mm 10 mps 754 mmHg 46%
    17:00 +16°C° 0 mm 9 mps 754 mmHg 48%
    18:00 +15°C° 0 mm 9 mps 754 mmHg 50%
    19:00 +13°C° 0 mm 8 mps 754 mmHg 51%
    20:00 +13°C° 0 mm 8 mps 754 mmHg 52%
    21:00 +12°C° 0 mm 8 mps 754 mmHg 53%
    22:00 +12°C° 0 mm 8 mps 754 mmHg 54%
    23:00 +12°C° 0 mm 7 mps 754 mmHg 54%

    24 April, Wednesday

    Time Temperature Precipitation Wind Pressure Humidity
    00:00 +12°C° 0 mm 7 mps 754 mmHg 54%
    01:00 +12°C° 0 mm 7 mps 754 mmHg 53%
    02:00 +11°C° 0 mm 7 mps 754 mmHg 54%
    03:00 +11°C° 0 mm 7 mps 755 mmHg 54%
    04:00 +10°C° 0 mm 7 mps 755 mmHg 55%
    05:00 +10°C° 0 mm 7 mps 755 mmHg 58%
    06:00 +11°C° 0 mm 7 mps 755 mmHg 60%
    07:00 +11°C° 0 mm 7 mps 755 mmHg 63%
    08:00 +12°C° 0 mm 7 mps 755 mmHg 61%
    09:00 +15°C° 0 mm 7 mps 756 mmHg 59%
    10:00 +16°C° 0 mm 7 mps 756 mmHg 57%
    11:00 +17°C° 0 mm 7 mps 756 mmHg 55%
    12:00 +18°C° 0 mm 7 mps 756 mmHg 54%
    13:00 +20°C° 0 mm 7 mps 756 mmHg 52%
    14:00 +21°C° 0 mm 7 mps 756 mmHg 53%
    15:00 +21°C° 0 mm 6 mps 756 mmHg 53%
    16:00 +21°C° 0 mm 6 mps 756 mmHg 53%
    17:00 +20°C° 0 mm 5 mps 756 mmHg 59%
    18:00 +17°C° 0 mm 5 mps 756 mmHg 64%
    19:00 +17°C° 0 mm 4 mps 756 mmHg 69%
    20:00 +15°C° 0 mm 4 mps 756 mmHg 69%
    21:00 +15°C° 0 mm 5 mps 756 mmHg 70%
    22:00 +14°C° 0 mm 5 mps 757 mmHg 70%
    23:00 +13°C° 0 mm 5 mps 757 mmHg 72%
    Show more